sat.trackr.live / text

‹ back to catalog

GSAT-19

NORAD 42747 · 2017-031A

PAYLOAD ACTIVE UNKNOWN

§ Identity

Operator
Country
IND
Launch date
2017-06-05
Launch site
SRILR
Launch vehicle
Mass (kg)
RCS (m²)

Purposes: comms

External: N2YO · Heavens-Above · Gunter

§ Orbital elements

Epoch: 2026-09-19T18:54:32.667840Z

Period
1,436.09 min
Inclination
0.0385°
Eccentricity
0.0003593
Mean motion
1.00272445 rev/d
Perigee alt
35,771.3 km
Apogee alt
35,801.6 km
Semi-major
42,164.5 km
B*
0.0000e+0
RAAN
97.8157°
Arg perigee
21.8771°
Mean anomaly
210.5329°
Rev number
3,409

§ Raw data

GSAT-191 42747U 17031A   26262.78787810  .00000121  00000+0  00000+0 0  99922 42747   0.0385  97.8157 0003593  21.8771 210.5329  1.00272445 34098

JSON: /api/v1/satellites/42747 · /tle

For live sub-satellite position, see the globe view (requires WebGL).

§ Visibility from observer

Set your observer location to see the next 7 days of passes ≥ 10°. The values pass through the URL so the page stays shareable.

No JS? Fill the form by hand. The geolocation button needs JavaScript.